Location: Middelsbur
(53.6609°N, 7.5020°E)
Time: 00:27:56
(UTC+00:00)

Cosmos 2322 - Pass Details

Date: 06 July 2020
Orbit: 841 x 854 km, 71.0° (Epoch: 03 August)

Event Time Altitude Azimuth Distance (km) Brightness Sun altitude
Rises 21:49:40 0° 226° (SW) 3,417 6.7 -10.4°
Reaches altitude 10° 21:52:10 10° 230° (SW) 2,484 6.0 -10.6°
Maximum altitude 21:57:47 56° 309° (NW) 1,011 4.5 -10.9°
Drops below altitude 10° 22:03:26 10° 28° (NNE) 2,495 6.8 -11.2°
Sets 22:05:57 0° 33° (NNE) 3,433 7.4 -11.4°
